IW5EFR Vecchia di Pontedera IT current weather conditions

sailwx.info

Wind from 150

Air temperature 12.2° C
Dewpoint 11.4° C

Last reported at 2015-Apr-27 19:53 UTC.
Time now 2015-Apr-27 20:41 UTC

Location: N 43°37' E 010°38'.
View on Google Maps.

See reports from other nearby stations

  
Tides and Currents Weather Stations Pressure Air Temp Water Temp Dewpoint Dewpoint Depression Visibility Wind Speed Wind Dir Waves Ship Positions
date/time (UTC)wind fromknots sea level pressurealtimeterstation pressurevisibilityair tempwater tempwave heightnotes
2015-Apr-27 19:53 150 12.2
2015-Apr-27 19:48 159 2 gusting 3 12.2
2015-Apr-27 19:43 166 1 gusting 6 12.2
2015-Apr-27 19:38 139 1 gusting 6 12.2
2015-Apr-27 19:33 138 1 gusting 7 12.2
2015-Apr-27 19:28 138 0 gusting 7 12.2
2015-Apr-27 19:23 130 4 gusting 6 12.2
2015-Apr-27 19:18 130 2 gusting 6 12.2
2015-Apr-27 19:13 135 3 gusting 7 12.2
2015-Apr-27 19:08 134 2 gusting 7 12.2
2015-Apr-27 19:03 121 2 gusting 7 12.2
2015-Apr-27 18:58 123 3 gusting 6 12.2
2015-Apr-27 18:53 115 2 gusting 6 12.8
2015-Apr-27 18:48 111 4 gusting 6 12.8
2015-Apr-27 18:37 105 1 gusting 5 12.8
2015-Apr-27 18:32 084 1 gusting 4 12.8
2015-Apr-27 18:27 137 3 gusting 4 12.8
2015-Apr-27 18:22 122 4 gusting 6 12.8
2015-Apr-27 18:17 115 3 gusting 6 12.8
2015-Apr-27 18:13 123 2 gusting 4 12.8
2015-Apr-27 18:08 121 3 gusting 4 12.8
2015-Apr-27 18:03 116 4 gusting 4 12.8
2015-Apr-27 17:58 116 3 gusting 1 12.8
2015-Apr-27 17:53 117 1 gusting 1 12.8
2015-Apr-27 17:48 117 1 gusting 1 12.8
2015-Apr-27 17:43 117 12.8
2015-Apr-27 17:38 117 12.8
2015-Apr-27 17:33 117 1 gusting 6 12.2
2015-Apr-27 17:28 117 0 gusting 6 12.2
2015-Apr-27 17:23 117 12.2
2015-Apr-27 17:18 118 12.2
2015-Apr-27 17:13 118 2 gusting 6 12.2
2015-Apr-27 17:08 116 1 gusting 6 12.8
2015-Apr-27 17:03 131 4 gusting 6 12.8
2015-Apr-27 16:58 163 4 gusting 7 12.8
2015-Apr-27 16:53 161 2 gusting 6 12.8
2015-Apr-27 16:48 161 1 gusting 6 12.8
2015-Apr-27 16:43 149 6 gusting 2 12.8
2015-Apr-27 16:38 148 4 gusting 2 12.8
2015-Apr-27 16:33 156 1 gusting 6 12.8
2015-Apr-27 16:28 156 1 gusting 6 12.8
2015-Apr-27 16:23 156 1 gusting 6 12.8
2015-Apr-27 16:18 156 12.8
2015-Apr-27 16:13 156 2 gusting 4 13.3
2015-Apr-27 16:08 157 3 gusting 4 13.3
2015-Apr-27 16:03 178 4 gusting 4 13.3
2015-Apr-27 15:58 175 0 gusting 6 13.9
2015-Apr-27 15:53 268 13.9
2015-Apr-27 15:48 268 0 gusting 6 13.9
2015-Apr-27 15:43 268 3 gusting 6 14.4
2015-Apr-27 15:38 275 2 gusting 6 14.4
2015-Apr-27 15:33 307 3 gusting 9 15.6
2015-Apr-27 15:28 252 0 gusting 9 15.6
2015-Apr-27 15:23 184 0 gusting 6 15.6
2015-Apr-27 15:18 197 3 gusting 6 16.1
2015-Apr-27 15:13 183 2 gusting 6 16.1
2015-Apr-27 15:08 135 5 gusting 6 16.1
2015-Apr-27 15:03 150 3 gusting 6 16.1
2015-Apr-27 14:58 137 2 gusting 11 16.1
2015-Apr-27 14:53 144 3 gusting 8 16.7
2015-Apr-27 14:48 148 3 gusting 8 16.7
2015-Apr-27 14:43 142 3 gusting 13 16.7
2015-Apr-27 14:38 109 6 gusting 13 16.7
2015-Apr-27 14:33 121 1 gusting 11 16.7
2015-Apr-27 14:28 116 4 gusting 11 16.7
2015-Apr-27 14:23 146 3 gusting 10 16.7
2015-Apr-27 14:18 135 6 gusting 10 16.7
2015-Apr-27 14:13 161 4 gusting 14 17.2
2015-Apr-27 14:08 114 6 gusting 14 17.2
2015-Apr-27 14:03 124 7 gusting 14 17.2
2015-Apr-27 13:58 149 6 gusting 13 17.8
2015-Apr-27 13:53 152 6 gusting 17 17.8
2015-Apr-27 13:48 157 8 gusting 17 17.8
2015-Apr-27 13:43 173 5 gusting 19 18.3
2015-Apr-27 13:38 167 5 gusting 19 18.3
2015-Apr-27 13:33 159 10 gusting 17 18.3
2015-Apr-27 13:28 159 5 gusting 17 18.3
2015-Apr-27 13:23 151 13 gusting 12 18.3
2015-Apr-27 13:18 192 6 gusting 12 18.3
2015-Apr-27 13:13 184 6 gusting 20 18.3
2015-Apr-27 13:08 172 7 gusting 20 18.9
2015-Apr-27 13:03 156 8 gusting 20 18.9
2015-Apr-27 12:58 164 6 gusting 13 18.9
2015-Apr-27 12:53 167 6 gusting 14 18.9
2015-Apr-27 12:48 153 6 gusting 14 18.9
2015-Apr-27 12:43 161 7 gusting 13 18.3
2015-Apr-27 12:38 178 3 gusting 13 18.3
2015-Apr-27 12:33 154 12 gusting 14 18.3
2015-Apr-27 12:28 164 4 gusting 14 18.3
2015-Apr-27 12:23 166 5 gusting 16 18.3
2015-Apr-27 12:18 193 4 gusting 16 18.3
2015-Apr-27 12:13 144 10 gusting 17 18.3
2015-Apr-27 12:08 155 6 gusting 17 18.3
2015-Apr-27 12:03 178 3 gusting 17 18.3
2015-Apr-27 11:58 209 6 gusting 19 18.3
2015-Apr-27 11:53 160 10 gusting 21 18.3
2015-Apr-27 11:48 156 12 gusting 21 18.3
2015-Apr-27 11:43 216 10 gusting 19 18.3
2015-Apr-27 11:38 182 3 gusting 19 18.3
2015-Apr-27 11:33 144 15 gusting 26 18.3
2015-Apr-27 11:28 216 7 gusting 26 18.3
2015-Apr-27 11:23 164 11 gusting 19 18.3
2015-Apr-27 11:18 159 13 gusting 19 18.3
2015-Apr-27 11:13 202 8 gusting 16 18.3
2015-Apr-27 11:08 163 11 gusting 16 18.3
2015-Apr-27 11:03 155 19 gusting 16 18.3
2015-Apr-27 10:58 174 14 gusting 14 18.3
2015-Apr-27 10:53 154 13 gusting 17 17.8
2015-Apr-27 10:48 145 8 gusting 17 17.8
2015-Apr-27 10:43 205 5 gusting 18 17.8
2015-Apr-27 10:38 172 4 gusting 18 17.8
2015-Apr-27 10:33 178 7 gusting 13 17.8
2015-Apr-27 10:28 123 13 gusting 13 17.8
2015-Apr-27 10:23 170 6 gusting 13 17.8
2015-Apr-27 10:18 178 7 gusting 13 17.8
2015-Apr-27 10:13 188 10 gusting 14 17.8
2015-Apr-27 10:08 144 7 gusting 14 17.8
2015-Apr-27 10:03 164 4 gusting 14 17.2
2015-Apr-27 09:58 138 6 gusting 18 16.7
2015-Apr-27 09:53 219 6 gusting 13 17.2
2015-Apr-27 09:48 175 6 gusting 13 17.2
2015-Apr-27 09:43 159 13 gusting 11 17.2
2015-Apr-27 09:38 166 6 gusting 11 17.2
2015-Apr-27 09:33 159 6 gusting 10 17.2
2015-Apr-27 09:28 214 5 gusting 10 17.2
2015-Apr-27 09:23 181 1 gusting 10 17.2
2015-Apr-27 09:18 157 10 gusting 10 17.2
2015-Apr-27 09:13 173 8 gusting 6 17.2
2015-Apr-27 09:08 178 1 gusting 6 17.2
2015-Apr-27 09:03 182 0 gusting 6 16.7
2015-Apr-27 08:58 167 3 gusting 6 16.7
2015-Apr-27 08:53 173 3 gusting 7 16.7
2015-Apr-27 08:48 185 16.1
2015-Apr-27 08:43 156 16.1
2015-Apr-27 08:38 156 1 gusting 3 16.1
2015-Apr-27 08:33 188 1 gusting 2 15.6
2015-Apr-27 08:28 039 15.6
2015-Apr-27 08:23 039 1 15.6
2015-Apr-27 08:18 039 15.6
2015-Apr-27 08:13 039 15.6
2015-Apr-27 08:08 039 1 15.6
2015-Apr-27 08:03 039 15.0
2015-Apr-27 07:58 039 15.0
2015-Apr-27 07:53 039 15.0
2015-Apr-27 07:48 039 15.0
2015-Apr-27 07:43 039 15.0
2015-Apr-27 07:38 039 15.0
2015-Apr-27 07:33 039 15.0
2015-Apr-27 07:28 039 15.0
2015-Apr-27 07:23 039 15.0
2015-Apr-27 07:18 039 15.0
2015-Apr-27 07:13 039 0 gusting 5 14.4
2015-Apr-27 07:08 039 14.4
2015-Apr-27 07:03 039 14.4
2015-Apr-27 06:58 039 14.4
2015-Apr-27 06:53 048 1 gusting 2 14.4
2015-Apr-27 06:48 057 2 gusting 2 14.4
2015-Apr-27 06:43 062 1 gusting 2 14.4
2015-Apr-27 06:38 063 1 gusting 2 14.4
2015-Apr-27 06:33 063 14.4
2015-Apr-27 06:28 063 0 gusting 3 14.4
2015-Apr-27 06:23 063 0 gusting 3 14.4
2015-Apr-27 06:18 064 13.9
2015-Apr-27 06:13 064 13.9
2015-Apr-27 06:08 064 0 gusting 2 13.9
2015-Apr-27 06:03 062 0 gusting 2 13.9
2015-Apr-27 05:58 061 1 gusting 4 13.9
2015-Apr-27 05:53 058 0 gusting 2 13.9
2015-Apr-27 05:48 058 13.9
2015-Apr-27 05:43 058 13.9
2015-Apr-27 05:38 087 13.9
2015-Apr-27 05:33 087 1 gusting 2 13.9
2015-Apr-27 05:28 087 13.9
2015-Apr-27 05:23 087 13.9
2015-Apr-27 05:18 087 0 gusting 2 13.9
2015-Apr-27 05:13 091 0 gusting 4 13.9
2015-Apr-27 05:08 036 13.9
2015-Apr-27 05:03 037 13.9
2015-Apr-27 04:58 036 1 gusting 4 13.9
2015-Apr-27 04:53 191 0 gusting 3 13.9
2015-Apr-27 04:48 191 2 gusting 3 13.9
2015-Apr-27 04:43 191 2 gusting 3 13.9
2015-Apr-27 04:38 191 4 gusting 3 13.9
2015-Apr-27 04:33 191 13.9
2015-Apr-27 04:28 191 13.9
2015-Apr-27 04:23 191 1 gusting 1 14.4
2015-Apr-27 04:18 191 0 gusting 1 14.4
2015-Apr-27 04:13 191 14.4
2015-Apr-27 04:08 191 14.4
2015-Apr-27 04:03 191 14.4
2015-Apr-27 03:58 191 14.4
2015-Apr-27 03:53 191 14.4
2015-Apr-27 03:48 191 14.4
2015-Apr-27 03:43 191 14.4
2015-Apr-27 03:38 191 1 gusting 1 14.4
2015-Apr-27 03:33 191 0 gusting 1 14.4
2015-Apr-27 03:28 191 14.4
2015-Apr-27 03:23 191 14.4
2015-Apr-27 03:18 191 14.4
2015-Apr-27 03:13 191 14.4
2015-Apr-27 03:08 191 14.4
2015-Apr-27 03:03 191 15.0
2015-Apr-27 02:58 191 14.4
2015-Apr-27 02:53 191 15.0
2015-Apr-27 02:48 191 0 gusting 1 15.0
2015-Apr-27 02:43 191 0 gusting 1 15.0
2015-Apr-27 02:38 191 0 gusting 1 15.0
2015-Apr-27 02:33 191 15.0
2015-Apr-27 02:28 191 15.0
2015-Apr-27 02:23 191 1 gusting 3 15.0
2015-Apr-27 02:18 191 15.0
2015-Apr-27 02:13 191 2 gusting 4 15.0
2015-Apr-27 02:08 191 1 gusting 4 15.0
2015-Apr-27 02:03 191 0 gusting 4 14.4
2015-Apr-27 01:58 191 2 gusting 2 14.4
2015-Apr-27 01:53 191 14.4
2015-Apr-27 01:48 191 1 gusting 2 14.4
2015-Apr-27 01:45 191 14.4
2015-Apr-27 01:40 191 14.4
2015-Apr-27 01:35 191 14.4
2015-Apr-27 01:30 191 0 14.4
2015-Apr-27 01:25 191 14.4
2015-Apr-27 01:20 191 0 gusting 1 14.4
2015-Apr-27 01:13 191 14.4
2015-Apr-27 01:08 191 14.4
2015-Apr-27 01:03 191 1 14.4
2015-Apr-27 00:58 191 14.4
2015-Apr-27 00:53 191 14.4
2015-Apr-27 00:48 191 14.4
2015-Apr-27 00:42 191 14.4
2015-Apr-27 00:37 191 14.4
2015-Apr-27 00:32 191 14.4
2015-Apr-27 00:27 191 14.4
2015-Apr-27 00:22 191 14.4
2015-Apr-27 00:17 191 14.4
2015-Apr-27 00:12 191 14.4
2015-Apr-27 00:07 191 14.4
2015-Apr-27 00:02 191 14.4
2015-Apr-26 23:57 191 14.4
2015-Apr-26 23:52 191 14.4
2015-Apr-26 23:47 191 0 14.4
2015-Apr-26 23:42 191 0 14.4
2015-Apr-26 23:37 191 14.4
2015-Apr-26 23:32 191 15.0
2015-Apr-26 23:27 191 15.0
2015-Apr-26 23:22 191 15.0
2015-Apr-26 23:17 191 15.0
2015-Apr-26 23:12 191 15.0
2015-Apr-26 23:07 191 15.0
2015-Apr-26 23:02 191 15.0
2015-Apr-26 22:57 191 15.0
2015-Apr-26 22:52 191 15.0
2015-Apr-26 22:47 191 15.0
2015-Apr-26 22:42 191 15.0
2015-Apr-26 22:37 191 15.0
2015-Apr-26 22:32 191 15.6
2015-Apr-26 22:27 191 15.6
2015-Apr-26 22:22 191 15.6
2015-Apr-26 22:17 191 15.6
2015-Apr-26 22:12 191 15.6
2015-Apr-26 22:07 191 15.6
2015-Apr-26 22:02 191 15.6
2015-Apr-26 21:57 191 15.6
2015-Apr-26 21:52 191 15.6
2015-Apr-26 21:47 191 15.6
2015-Apr-26 21:42 191 15.6
2015-Apr-26 21:37 191 15.6
2015-Apr-26 21:32 191 15.6
2015-Apr-26 21:27 191 15.6
2015-Apr-26 21:22 191 15.6
2015-Apr-26 21:17 191 15.6
2015-Apr-26 21:12 191 15.6
2015-Apr-26 21:07 191 16.1
2015-Apr-26 21:02 191 16.1
2015-Apr-26 20:57 191 16.1
2015-Apr-26 20:52 191 16.1
2015-Apr-26 20:47 191 16.1
2015-Apr-26 20:42 191 16.1
2015-Apr-26 20:37 191 16.1
2015-Apr-26 20:32 191 16.1
2015-Apr-26 20:27 191 16.1
2015-Apr-26 20:22 191 16.7
2015-Apr-26 20:17 191 0 16.7
2015-Apr-26 20:12 191 16.7
2015-Apr-26 20:07 191 16.7
2015-Apr-26 20:02 191 16.7
2015-Apr-26 19:57 191 16.7
2015-Apr-26 19:52 191 16.7
2015-Apr-26 19:47 191 16.7
2015-Apr-26 19:42 191 17.2
2015-Apr-26 19:37 191 17.2
2015-Apr-26 19:32 191 17.2
2015-Apr-26 19:27 191 17.2
2015-Apr-26 19:22 191 17.2
2015-Apr-26 19:17 191 17.2
2015-Apr-26 19:12 191 17.2
2015-Apr-26 19:07 191 17.2
2015-Apr-26 19:02 191 17.2
2015-Apr-26 18:57 191 17.2
2015-Apr-26 18:52 191 17.2
2015-Apr-26 18:47 191 17.2
2015-Apr-26 18:42 191 0 gusting 3 17.2
2015-Apr-26 18:37 191 0 gusting 3 17.2
2015-Apr-26 18:32 191 1 gusting 3 17.8
2015-Apr-26 18:27 191 2 gusting 3 17.8
2015-Apr-26 18:22 191 2 gusting 2 17.8
2015-Apr-26 18:17 191 2 gusting 2 17.8
2015-Apr-26 18:12 191 1 gusting 3 17.8
2015-Apr-26 18:07 191 2 gusting 3 17.8
2015-Apr-26 18:02 191 0 gusting 3 18.3
2015-Apr-26 17:57 191 0 gusting 2 18.3
2015-Apr-26 17:52 191 1 gusting 2 18.3
2015-Apr-26 17:47 192 0 gusting 2 18.3
2015-Apr-26 17:42 200 18.3
2015-Apr-26 17:37 199 18.3
2015-Apr-26 17:32 199 1 gusting 1 18.9
2015-Apr-26 17:27 200 2 gusting 1 18.9
2015-Apr-26 17:22 200 0 gusting 2 18.9
2015-Apr-26 17:17 200 0 gusting 2 18.9
2015-Apr-26 17:12 200 18.9
2015-Apr-26 17:07 200 18.9
2015-Apr-26 17:02 200 0 gusting 2 18.9
2015-Apr-26 16:57 223 18.9
2015-Apr-26 16:52 223 0 gusting 2 18.9
2015-Apr-26 16:47 223 2 gusting 2 18.9
2015-Apr-26 16:42 268 0 gusting 2 18.9
2015-Apr-26 16:37 270 1 gusting 2 19.4
2015-Apr-26 16:32 271 0 gusting 3 19.4
2015-Apr-26 16:27 271 19.4
2015-Apr-26 16:22 271 0 gusting 3 19.4
2015-Apr-26 16:17 271 0 gusting 3 19.4
2015-Apr-26 16:12 271 19.4
2015-Apr-26 16:07 271 1 gusting 2 20.0
2015-Apr-26 16:02 271 20.0
2015-Apr-26 15:57 271 0 gusting 1 20.0
2015-Apr-26 15:52 262 20.0
2015-Apr-26 15:47 261 0 gusting 3 20.0
2015-Apr-26 15:44 261 20.0
2015-Apr-26 15:39 261 1 gusting 3 20.0
2015-Apr-26 15:34 261 20.0
2015-Apr-26 15:29 261 3 gusting 3 20.0
2015-Apr-26 15:24 261 0 gusting 3 20.0
2015-Apr-26 15:19 261 19.4
2015-Apr-26 15:11 261 2 gusting 5 18.9
2015-Apr-26 15:06 261 0 gusting 5 18.9
2015-Apr-26 15:01 261 0 gusting 6 18.9
2015-Apr-26 14:56 266 2 gusting 6 19.4
2015-Apr-26 14:51 266 18.9
2015-Apr-26 14:46 263 1 gusting 6 18.9
2015-Apr-26 14:41 263 2 gusting 6 18.9
2015-Apr-26 14:36 252 4 gusting 6 18.9
2015-Apr-26 14:31 254 2 gusting 6 18.9
2015-Apr-26 14:26 321 3 gusting 6 18.9
2015-Apr-26 14:21 247 2 gusting 5 18.9
2015-Apr-26 14:16 261 3 gusting 5 18.9
2015-Apr-26 14:11 249 4 gusting 6 18.9
2015-Apr-26 14:06 273 4 gusting 6 18.9
2015-Apr-26 14:01 263 3 gusting 6 18.9
2015-Apr-26 13:56 262 18.9
2015-Apr-26 13:51 262 18.9
2015-Apr-26 13:46 261 2 gusting 7 18.9
2015-Apr-26 13:41 260 1 gusting 5 18.9
2015-Apr-26 13:36 271 0 gusting 5 18.9
2015-Apr-26 13:31 271 5 gusting 8 18.9
2015-Apr-26 13:26 271 1 gusting 8 18.9
2015-Apr-26 13:21 278 2 gusting 6 18.9
2015-Apr-26 13:16 267 3 gusting 6 18.9
2015-Apr-26 13:11 250 3 gusting 6 18.9
2015-Apr-26 13:06 210 2 gusting 6 18.9
2015-Apr-26 13:01 247 2 gusting 7 18.9
2015-Apr-26 12:56 207 18.9
2015-Apr-26 12:51 259 1 gusting 7 18.9
2015-Apr-26 12:46 257 2 gusting 7 18.9
2015-Apr-26 12:41 257 18.9
2015-Apr-26 12:36 236 6 gusting 4 18.9
2015-Apr-26 12:31 263 0 gusting 7 18.9
2015-Apr-26 12:21 235 3 gusting 3 19.4
2015-Apr-26 12:14 235 0 gusting 3 19.4
2015-Apr-26 12:09 269 0 gusting 5 20.0
2015-Apr-26 12:04 015 20.0
2015-Apr-26 11:59 015 2 gusting 5 20.0
2015-Apr-26 11:54 015 20.0
2015-Apr-26 11:49 015 20.0
2015-Apr-26 11:43 030 3 gusting 3 20.0
2015-Apr-26 11:38 030 20.0
2015-Apr-26 11:33 030 20.0
2015-Apr-26 11:28 027 0 gusting 6 20.0
2015-Apr-26 11:23 027 20.0
2015-Apr-26 11:16 021 19.4
2015-Apr-26 11:08 025 19.4
2015-Apr-26 11:03 032 19.4
2015-Apr-26 10:58 032 19.4
2015-Apr-26 10:53 032 18.9
2015-Apr-26 10:48 032 18.9
2015-Apr-26 10:43 032 1 gusting 6 19.4
2015-Apr-26 10:38 005 4 gusting 6 18.9
2015-Apr-26 10:33 005 3 gusting 4 18.9
2015-Apr-26 10:28 005 2 gusting 4 18.9
2015-Apr-26 10:23 005 2 gusting 7 18.9
2015-Apr-26 10:18 005 1 gusting 7 18.9
2015-Apr-26 10:13 005 0 gusting 10 18.9
2015-Apr-26 10:08 005 18.9
2015-Apr-26 10:03 005 18.9
2015-Apr-26 09:58 005 5 gusting 7 18.9
2015-Apr-26 09:48 109 3 gusting 7 18.9
2015-Apr-26 09:43 033 3 gusting 6 18.3
2015-Apr-26 09:38 014 1 gusting 6 17.8
2015-Apr-26 09:33 005 7 gusting 6 17.8
2015-Apr-26 09:28 005 2 gusting 6 17.8
2015-Apr-26 09:23 123 0 gusting 6 17.8
2015-Apr-26 09:18 034 1 gusting 6 17.8
2015-Apr-26 09:13 013 5 gusting 4 17.8
2015-Apr-26 09:08 011 0 gusting 4 17.8
2015-Apr-26 09:03 005 2 gusting 4 17.8
2015-Apr-26 08:58 115 17.8
2015-Apr-26 08:53 134 17.2
2015-Apr-26 08:48 134 17.2
2015-Apr-26 08:43 134 17.2
2015-Apr-26 08:38 134 1 gusting 4 16.7
2015-Apr-26 08:33 136 1 gusting 4 16.1
2015-Apr-26 08:28 138 16.1
2015-Apr-26 08:23 138 15.6
2015-Apr-26 08:18 138 15.6
2015-Apr-26 08:13 138 1 gusting 2 15.6
2015-Apr-26 08:08 151 1 gusting 2 15.6
2015-Apr-26 08:03 151 15.6
2015-Apr-26 07:58 151 2 gusting 3 15.0
2015-Apr-26 07:53 158 1 15.0
2015-Apr-26 07:48 161 15.0
2015-Apr-26 07:43 161 15.0
2015-Apr-26 07:38 161 0 gusting 1 15.0
2015-Apr-26 07:33 161 15.0
2015-Apr-26 07:28 161 14.4
2015-Apr-26 07:23 161 14.4
2015-Apr-26 07:18 161 14.4
2015-Apr-26 07:13 161 13.9
2015-Apr-26 07:08 161 13.9
2015-Apr-26 07:03 161 13.9
2015-Apr-26 06:58 161 13.3
2015-Apr-26 06:53 161 13.3
2015-Apr-26 06:48 161 13.3
2015-Apr-26 06:43 161 13.3
2015-Apr-26 06:38 161 13.3
2015-Apr-26 06:33 161 12.8
2015-Apr-26 06:28 161 1 gusting 1 12.8
2015-Apr-26 06:23 161 12.8
2015-Apr-26 06:18 161 12.8
2015-Apr-26 06:13 161 12.8
2015-Apr-26 06:08 161 12.2
2015-Apr-26 06:03 161 12.2
2015-Apr-26 05:58 161 12.2
2015-Apr-26 05:53 161 12.2
2015-Apr-26 05:48 161 0 gusting 3 12.2
2015-Apr-26 05:43 161 0 gusting 3 12.2
2015-Apr-26 05:38 161 1 gusting 3 12.2
2015-Apr-26 05:33 161 2 gusting 1 11.7
2015-Apr-26 05:28 161 1 gusting 1 11.7
2015-Apr-26 05:23 161 0 gusting 1 11.7
2015-Apr-26 05:18 161 11.7
2015-Apr-26 05:13 161 1 11.7
2015-Apr-26 05:08 161 12.2
2015-Apr-26 05:03 161 12.2
2015-Apr-26 04:58 161 12.2
2015-Apr-26 04:53 161 12.2
2015-Apr-26 04:48 161 12.2
2015-Apr-26 04:43 161 12.2
2015-Apr-26 04:38 161 12.2
2015-Apr-26 04:33 161 12.2
2015-Apr-26 04:28 161 12.2
2015-Apr-26 04:23 161 12.2
2015-Apr-26 04:18 161 12.2
2015-Apr-26 04:13 161 12.2
2015-Apr-26 04:08 161 12.2
2015-Apr-26 04:03 161 12.2
2015-Apr-26 03:58 161 12.2
2015-Apr-26 03:53 161 12.2
2015-Apr-26 03:48 161 12.2
2015-Apr-26 03:43 161 12.2
2015-Apr-26 03:38 161 12.2
2015-Apr-26 03:33 161 12.2
2015-Apr-26 03:28 161 12.2
2015-Apr-26 03:23 161 12.2
2015-Apr-26 03:18 161 12.2
2015-Apr-26 03:13 161 12.2
2015-Apr-26 03:08 161 12.2
2015-Apr-26 03:03 161 0 gusting 1 12.2
2015-Apr-26 02:58 161 0 gusting 1 12.2
2015-Apr-26 02:53 161 12.2
2015-Apr-26 02:48 161 12.2
2015-Apr-26 02:43 161 12.2
2015-Apr-26 02:38 161 12.2
2015-Apr-26 02:33 161 2 gusting 4 12.2
2015-Apr-26 02:28 161 0 gusting 4 12.2
2015-Apr-26 02:23 161 12.2
2015-Apr-26 02:18 161 12.2
2015-Apr-26 02:13 161 12.2
2015-Apr-26 02:08 161 0 gusting 4 11.7
2015-Apr-26 02:03 161 0 gusting 4 11.7
2015-Apr-26 01:58 161 11.7
2015-Apr-26 01:53 161 0 gusting 4 11.7
2015-Apr-26 01:48 161 0 gusting 4 11.7
2015-Apr-26 01:43 161 0 gusting 3 12.2
2015-Apr-26 01:38 161 1 gusting 3 12.2
2015-Apr-26 01:33 161 0 gusting 4 12.2
2015-Apr-26 01:28 161 2 gusting 4 12.2
2015-Apr-26 01:23 161 0 gusting 4 12.2
2015-Apr-26 01:18 161 1 gusting 4 12.2
2015-Apr-26 01:13 161 0 gusting 2 12.2
2015-Apr-26 01:08 161 1 gusting 2 12.2
2015-Apr-26 01:03 162 0 gusting 2 12.2
2015-Apr-26 00:58 162 0 gusting 5 12.2
2015-Apr-26 00:53 162 12.2
2015-Apr-26 00:48 162 0 gusting 6 12.2
2015-Apr-26 00:43 162 2 gusting 4 12.8
2015-Apr-26 00:38 162 4 gusting 4 12.8
2015-Apr-26 00:33 153 4 gusting 4 12.8
2015-Apr-26 00:28 157 12.8
2015-Apr-26 00:23 156 3 gusting 1 12.8
2015-Apr-26 00:18 153 1 gusting 1 12.8
2015-Apr-26 00:13 153 0 gusting 1 12.8
2015-Apr-26 00:08 153 1 gusting 1 12.8
2015-Apr-26 00:03 153 12.8
2015-Apr-25 23:58 153 12.8
2015-Apr-25 23:53 153 0 gusting 3 13.3
2015-Apr-25 23:48 153 13.3
2015-Apr-25 23:43 153 0 gusting 5 13.3
2015-Apr-25 23:38 153 1 gusting 5 13.3
2015-Apr-25 23:33 153 0 gusting 6 13.3
2015-Apr-25 23:28 153 13.3
2015-Apr-25 23:23 153 13.3
2015-Apr-25 23:18 153 3 gusting 3 13.3
2015-Apr-25 23:13 159 2 13.9
2015-Apr-25 23:08 157 3 13.9
2015-Apr-25 23:03 277 1 14.4
2015-Apr-25 22:58 277 15.0
2015-Apr-25 22:53 277 15.0
2015-Apr-25 22:48 277 15.0
2015-Apr-25 22:43 277 15.0
2015-Apr-25 22:38 277 0 gusting 1 15.0
2015-Apr-25 22:33 277 0 gusting 2 15.0
2015-Apr-25 22:28 277 15.0
2015-Apr-25 22:23 277 0 gusting 2 15.0
2015-Apr-25 22:18 277 15.0
2015-Apr-25 22:13 277 15.0
2015-Apr-25 22:08 277 0 gusting 2 15.0
2015-Apr-25 22:03 277 15.0
2015-Apr-25 21:58 277 15.0
2015-Apr-25 21:53 277 14.4
2015-Apr-25 21:48 277 14.4
2015-Apr-25 21:43 277 14.4
2015-Apr-25 21:38 277 14.4
2015-Apr-25 21:33 277 14.4
2015-Apr-25 21:28 277 14.4
2015-Apr-25 21:23 277 15.0
2015-Apr-25 21:18 277 15.0
2015-Apr-25 21:13 277 15.0
2015-Apr-25 21:08 277 15.0
2015-Apr-25 21:03 277 0 gusting 2 15.0
2015-Apr-25 20:58 277 15.0
2015-Apr-25 20:53 277 2 15.0
2015-Apr-25 20:48 277 0 15.0
2015-Apr-25 20:43 277 15.0
2015-Apr-25 20:38 277 15.6
2015-Apr-25 20:33 277 15.6
2015-Apr-25 20:28 277 15.6
2015-Apr-25 20:23 277 15.6
2015-Apr-25 20:18 277 15.6
2015-Apr-25 20:13 277 15.6
2015-Apr-25 20:08 277 15.6
2015-Apr-25 20:03 277 15.6